NQ9F Weather Reports


Display with metric or nautical units.
time (UTC)temp
F
wind
direction
speed
MPH
gust
MPH
rain 1hr
in
rain 24hr
in
rain mn
in
humidity
%
barometer
mb
20260506071051 56 10 8.0 10.0 0.00 0.00 0.00 83 1010.9
20260506070548 56 21 7.0 10.0 0.00 0.00 0.00 83 1010.7
20260506062022 57 48 14.0 15.0 0.00 0.00 0.00 84 1010.4
20260506061518 57 49 9.0 9.0 0.00 0.00 0.00 84 1010.4
20260506061016 57 13 4.0 11.0 0.00 0.00 0.00 85 1010.3
20260506060514 58 34 4.0 9.0 0.00 0.00 0.00 85 1010.5
20260506050943 59 11 7.0 13.0 0.00 0.00 0.00 85 1010.5
20260506050441 59 4 10.0 12.0 0.00 0.00 0.00 85 1010.4
20260506044931 59 358 6.0 14.0 0.00 0.00 0.00 84 1010.4
20260506044429 59 347 6.0 11.0 0.00 0.00 0.00 84 1010.5
20260506043926 59 358 5.0 15.0 0.00 0.00 0.00 84 1010.4
20260506043423 59 3 7.0 13.0 0.00 0.00 0.00 84 1010.8
20260506042921 59 1 11.0 13.0 0.00 0.00 0.00 84 1010.4
20260506042420 59 353 7.0 14.0 0.00 0.00 0.00 84 1010.5
20260506041918 59 0 12.0 15.0 0.00 0.00 0.00 83 1010.5
20260506041415 59 4 9.0 12.0 0.00 0.00 0.00 83 1010.7
20260506040912 59 8 13.0 14.0 0.00 0.00 0.00 83 1010.5
20260506040410 59 0 9.0 15.0 0.00 0.00 0.00 82 1010.4
20260506035905 59 0 8.0 14.0 0.00 0.00 0.00 82 1010.5
20260506035403 59 340 4.0 14.0 0.00 0.00 0.00 82 1010.4
20260506034900 60 5 9.0 15.0 0.00 0.00 0.00 82 1010.5
20260506034358 60 335 12.0 16.0 0.00 0.00 0.00 81 1010.4
20260506033854 60 356 8.0 16.0 0.00 0.00 0.00 81 1010.4
20260506033351 60 0 11.0 19.0 0.00 0.00 0.00 81 1010.1
20260506032848 60 336 13.0 19.0 0.00 0.00 0.00 81 1010.0
20260506032344 61 338 9.0 13.0 0.00 0.00 0.00 81 1009.9
20260506031841 61 344 6.0 15.0 0.00 0.00 0.00 81 1009.9
20260506031339 61 355 7.0 17.0 0.00 0.00 0.00 81 1009.6
20260506030836 61 0 7.0 13.0 0.00 0.00 0.00 81 1009.4
20260506030334 61 359 11.0 14.0 0.00 0.00 0.00 81 1009.2
20260506025831 62 349 6.0 14.0 0.00 0.00 0.00 80 1009.3
20260506025327 62 5 14.0 17.0 0.00 0.00 0.00 81 1009.2
20260506024824 62 0 14.0 16.0 0.00 0.00 0.00 81 1009.1
20260506024321 62 2 10.0 11.0 0.00 0.00 0.00 81 1009.1
20260506023817 62 6 8.0 12.0 0.00 0.00 0.00 81 1009.2
20260506023314 62 4 8.0 15.0 0.00 0.00 0.00 80 1009.0
20260506022811 63 358 11.0 17.0 0.00 0.00 0.00 79 1008.8
20260506022309 63 17 4.0 17.0 0.00 0.00 0.00 79 1008.8
20260506021807 63 7 9.0 15.0 0.00 0.00 0.00 79 1008.8
20260506021303 64 2 9.0 11.0 0.00 0.00 0.00 79 1008.7
20260506020800 64 355 4.0 15.0 0.00 0.00 0.00 79 1008.8
20260506020258 64 8 5.0 12.0 0.00 0.00 0.00 79 1008.6
20260506015755 64 2 8.0 14.0 0.00 0.00 0.00 78 1008.2
20260506015253 64 4 12.0 14.0 0.00 0.00 0.00 78 1008.2
20260506014749 65 0 4.0 13.0 0.00 0.00 0.00 78 1008.1
20260506014246 65 3 8.0 14.0 0.00 0.00 0.00 78 1007.7
20260506013743 65 351 6.0 14.0 0.00 0.00 0.00 77 1007.4
20260506013240 65 2 12.0 20.0 0.00 0.00 0.00 77 1007.2
20260506012736 65 6 10.0 17.0 0.00 0.00 0.00 76 1007.6
20260506012233 65 6 9.0 13.0 0.00 0.00 0.00 77 1007.4
20260506011731 65 4 11.0 11.0 0.00 0.00 0.00 77 1007.3
20260506011227 66 353 8.0 12.0 0.00 0.00 0.00 77 1007.1
20260506010725 66 2 9.0 14.0 0.00 0.00 0.00 77 1006.9
20260506010222 66 25 5.0 14.0 0.00 0.00 0.00 77 1006.4
20260506005720 66 5 9.0 13.0 0.00 0.00 0.00 76 1006.5
20260506005216 67 357 9.0 16.0 0.00 0.00 0.00 75 1006.4
20260506004712 67 332 12.0 12.0 0.00 0.00 0.00 75 1006.2
20260506004210 67 0 11.0 18.0 0.00 0.00 0.00 75 1006.2
20260506003706 67 350 14.0 18.0 0.00 0.00 0.00 75 1006.1
20260506003202 68 359 15.0 22.0 0.00 0.00 0.00 74 1006.3
20260506002658 68 353 15.0 18.0 0.00 0.00 0.00 74 1006.3
20260506002155 69 359 11.0 24.0 0.00 0.00 0.00 73 1006.4
20260506001650 69 358 16.0 17.0 0.00 0.00 0.00 72 1006.3
20260506001148 69 350 11.0 14.0 0.00 0.00 0.00 73 1006.0
20260506000645 70 359 14.0 20.0 0.00 0.00 0.00 71 1006.1
20260506000142 70 357 8.0 17.0 0.00 0.00 0.00 71 1006.0
20260505235640 70 349 6.0 17.0 0.00 0.00 0.00 70 1006.0
20260505235137 71 355 15.0 17.0 0.00 0.00 0.00 71 1006.4
20260505234634 71 358 14.0 19.0 0.00 0.00 0.00 70 1006.2
20260505234131 71 0 8.0 18.0 0.00 0.00 0.00 71 1006.0
20260505233628 71 358 16.0 19.0 0.00 0.00 0.00 70 1006.1
20260505233126 72 355 12.0 17.0 0.00 0.00 0.00 70 1005.9
20260505232623 72 4 12.0 21.0 0.00 0.00 0.00 69 1005.8
20260505232120 73 1 14.0 18.0 0.00 0.00 0.00 68 1005.7
20260505231617 73 343 9.0 17.0 0.00 0.00 0.00 68 1005.8
20260505231116 73 6 6.0 14.0 0.00 0.00 0.00 69 1005.8
20260505230613 73 351 8.0 21.0 0.00 0.00 0.00 67 1005.8
20260505230109 73 346 15.0 15.0 0.00 0.00 0.00 67 1005.8
20260505225606 74 339 7.0 18.0 0.00 0.00 0.00 67 1005.7
20260505225102 74 348 5.0 11.0 0.00 0.00 0.00 67 1005.7
20260505224559 74 343 6.0 12.0 0.00 0.00 0.00 68 1005.5
20260505224057 75 333 11.0 22.0 0.00 0.00 0.00 66 1005.4
20260505223554 75 333 10.0 20.0 0.00 0.00 0.00 66 1005.4
20260505223050 76 327 9.0 15.0 0.00 0.00 0.00 65 1005.6
20260505222546 76 321 6.0 16.0 0.00 0.00 0.00 64 1005.4
20260505222042 76 349 8.0 15.0 0.00 0.00 0.00 64 1005.2
20260505221539 76 324 11.0 17.0 0.00 0.00 0.00 64 1005.5
20260505221036 77 327 7.0 15.0 0.00 0.00 0.00 64 1005.4
20260505220533 77 355 6.0 15.0 0.00 0.00 0.00 63 1005.1
20260505220031 77 352 9.0 16.0 0.00 0.00 0.00 63 1005.2
20260505215529 77 354 7.0 14.0 0.00 0.00 0.00 64 1005.3
20260505215026 77 326 8.0 22.0 0.00 0.00 0.00 62 1005.1
20260505214524 78 343 13.0 15.0 0.00 0.00 0.00 63 1005.2
20260505214021 78 358 10.0 16.0 0.00 0.00 0.00 63 1005.1
20260505213519 79 0 9.0 17.0 0.00 0.00 0.00 64 1005.0
20260505213015 79 321 8.0 14.0 0.00 0.00 0.00 64 1005.1
20260505212511 79 323 8.0 20.0 0.00 0.00 0.00 63 1005.4
20260505212009 80 321 12.0 17.0 0.00 0.00 0.00 61 1005.1
20260505211506 81 353 8.0 22.0 0.00 0.00 0.00 58 1005.0
20260505211002 81 328 13.0 19.0 0.00 0.00 0.00 55 1005.1
20260505210459 82 341 7.0 18.0 0.00 0.00 0.00 54 1005.2
20260505205955 82 340 5.0 15.0 0.00 0.00 0.00 52 1005.0
20260505205454 82 356 7.0 17.0 0.00 0.00 0.00 53 1005.3
20260505204951 82 336 6.0 17.0 0.00 0.00 0.00 50 1005.3
20260505204449 83 9 7.0 15.0 0.00 0.00 0.00 49 1005.2
20260505203946 82 320 13.0 18.0 0.00 0.00 0.00 48 1005.3
20260505203442 82 317 8.0 19.0 0.00 0.00 0.00 48 1005.4
20260505202938 82 317 17.0 21.0 0.00 0.00 0.00 45 1005.3
20260505202435 82 320 16.0 22.0 0.00 0.00 0.00 44 1005.3
20260505201931 82 314 17.0 20.0 0.00 0.00 0.00 45 1005.3
20260505201428 82 333 18.0 23.0 0.00 0.00 0.00 44 1005.3
20260505200926 82 329 9.0 24.0 0.00 0.00 0.00 47 1005.3
20260505200423 84 329 13.0 25.0 0.00 0.00 0.00 46 1005.1
20260505195919 87 283 6.0 10.0 0.00 0.00 0.00 52 1004.9
20260505195417 87 263 4.0 10.0 0.00 0.00 0.00 51 1005.3
20260505194914 86 313 5.0 12.0 0.00 0.00 0.00 52 1005.3
20260505194412 87 256 15.0 16.0 0.00 0.00 0.00 51 1005.3
20260505193911 86 244 9.0 11.0 0.00 0.00 0.00 53 1005.3
20260505193409 86 231 7.0 15.0 0.00 0.00 0.00 54 1005.3
20260505192907 86 244 7.0 11.0 0.00 0.00 0.00 52 1005.2
20260505192405 86 250 10.0 15.0 0.00 0.00 0.00 54 1005.3
20260505191902 86 232 8.0 10.0 0.00 0.00 0.00 60 1005.2
20260505191401 85 235 8.0 16.0 0.00 0.00 0.00 60 1005.4
20260505190857 85 223 3.0 16.0 0.00 0.00 0.00 59 1005.2
20260505190353 85 223 9.0 17.0 0.00 0.00 0.00 61 1005.0
20260505185848 85 228 9.0 17.0 0.00 0.00 0.00 62 1005.3
20260505185345 85 200 6.0 14.0 0.00 0.00 0.00 62 1005.1
20260505184841 85 224 14.0 17.0 0.00 0.00 0.00 62 1005.1
20260505184338 84 233 6.0 13.0 0.00 0.00 0.00 63 1005.1
20260505183835 84 227 13.0 15.0 0.00 0.00 0.00 63 1005.4
20260505183332 84 204 11.0 16.0 0.00 0.00 0.00 62 1005.0
20260505182829 84 212 8.0 14.0 0.00 0.00 0.00 63 1005.2
20260505182325 84 203 13.0 17.0 0.00 0.00 0.00 62 1005.1
20260505181822 83 209 9.0 17.0 0.00 0.00 0.00 62 1005.2
20260505181320 84 234 10.0 13.0 0.00 0.00 0.00 63 1005.1
20260505180816 83 215 11.0 20.0 0.00 0.00 0.00 63 1005.2
20260505180312 83 206 5.0 17.0 0.00 0.00 0.00 65 1005.3
20260505175809 83 217 7.0 13.0 0.00 0.00 0.00 66 1005.2
20260505175306 83 225 4.0 17.0 0.00 0.00 0.00 67 1005.4
20260505174802 82 218 8.0 11.0 0.00 0.00 0.00 66 1005.4
20260505174259 83 209 11.0 14.0 0.00 0.00 0.00 67 1005.2
20260505173755 84 198 10.0 11.0 0.00 0.00 0.00 66 1005.3
20260505173252 82 208 7.0 13.0 0.00 0.00 0.00 68 1005.5
20260505172749 82 181 8.0 15.0 0.00 0.00 0.00 68 1005.1
20260505172246 82 219 9.0 17.0 0.00 0.00 0.00 68 1005.3
20260505171746 82 169 3.0 17.0 0.00 0.00 0.00 67 1005.3
20260505171243 82 198 7.0 12.0 0.00 0.00 0.00 67 1005.1
20260505170740 82 231 17.0 17.0 0.00 0.00 0.00 66 1005.0
20260505170237 82 184 9.0 14.0 0.00 0.00 0.00 67 1005.0
20260505165732 81 201 5.0 20.0 0.00 0.00 0.00 67 1005.2
20260505165229 82 204 9.0 21.0 0.00 0.00 0.00 66 1004.9
20260505164724 81 199 5.0 14.0 0.00 0.00 0.00 68 1005.0
20260505164221 81 229 7.0 21.0 0.00 0.00 0.00 69 1005.1
20260505163719 80 184 4.0 20.0 0.00 0.00 0.00 68 1005.2
20260505163218 80 222 11.0 22.0 0.00 0.00 0.00 71 1005.4
20260505162715 79 191 7.0 15.0 0.00 0.00 0.00 72 1005.1
20260505162212 79 192 9.0 17.0 0.00 0.00 0.00 73 1005.0
20260505161708 79 195 6.0 15.0 0.00 0.00 0.00 73 1004.9
20260505161206 78 206 8.0 18.0 0.00 0.00 0.00 74 1005.0
20260505160704 78 205 6.0 18.0 0.00 0.00 0.00 75 1004.6
20260505160201 77 199 10.0 15.0 0.00 0.00 0.00 76 1004.6
20260505153140 75 199 12.0 20.0 0.00 0.00 0.00 79 1004.4
20260505152637 75 204 8.0 16.0 0.00 0.00 0.00 80 1004.6
20260505152133 75 221 9.0 25.0 0.00 0.00 0.00 79 1004.7
20260505151628 74 220 24.0 28.0 0.00 0.00 0.00 79 1004.4
20260505151126 74 218 11.0 15.0 0.00 0.00 0.00 80 1004.7
20260505150622 74 208 11.0 24.0 0.00 0.00 0.00 80 1004.6
20260505150119 74 197 5.0 14.0 0.00 0.00 0.00 81 1004.3
20260505140547 71 195 17.0 23.0 0.00 0.00 0.00 84 1003.9
20260505125000 70 190 20.0 29.0 0.00 0.00 0.00 86 1003.7
20260505124457 70 205 14.0 38.0 0.00 0.00 0.00 86 1003.5
20260505123953 70 189 7.0 21.0 0.00 0.00 0.00 86 1003.5
20260505123450 69 203 14.0 20.0 0.00 0.00 0.00 86 1003.5
20260505122946 69 193 20.0 23.0 0.00 0.00 0.00 87 1003.3
20260505122444 69 204 18.0 26.0 0.00 0.00 0.00 87 1003.3
20260505121940 69 197 11.0 22.0 0.00 0.00 0.00 87 1003.1
20260505121437 69 203 13.0 24.0 0.00 0.00 0.00 87 1003.0
20260505120933 69 202 11.0 26.0 0.00 0.00 0.00 87 1003.2
20260505120430 69 193 13.0 27.0 0.00 0.00 0.00 87 1003.1
20260505115928 69 197 13.0 28.0 0.00 0.00 0.00 87 1003.1
20260505115425 69 200 12.0 21.0 0.00 0.00 0.00 86 1003.0
20260505114923 69 198 21.0 21.0 0.00 0.00 0.00 86 1003.1
20260505114419 69 191 10.0 23.0 0.00 0.00 0.00 86 1003.2
20260505113915 69 186 13.0 17.0 0.00 0.00 0.00 86 1003.2
20260505113413 69 211 13.0 26.0 0.00 0.00 0.00 86 1003.4
20260505112908 69 183 8.0 19.0 0.00 0.00 0.00 86 1003.0
20260505112406 69 203 5.0 24.0 0.00 0.00 0.00 86 1003.0
20260505111902 69 199 13.0 24.0 0.00 0.00 0.00 85 1003.0
20260505111357 69 179 9.0 20.0 0.00 0.00 0.00 85 1002.7
20260505110853 69 199 8.0 26.0 0.00 0.00 0.00 85 1002.8
20260505110351 69 190 11.0 22.0 0.00 0.00 0.00 85 1002.7
20260505101821 70 190 25.0 25.0 0.00 0.00 0.00 84 1002.7
20260505101316 70 191 8.0 19.0 0.00 0.00 0.00 84 1002.9
20260505100812 70 196 10.0 22.0 0.00 0.00 0.00 84 1003.1
20260505100309 70 178 8.0 20.0 0.00 0.00 0.00 84 1003.1
20260505095805 70 192 15.0 19.0 0.00 0.00 0.00 83 1002.9
20260505095304 70 183 10.0 20.0 0.00 0.00 0.00 83 1002.9
20260505094758 70 180 14.0 25.0 0.00 0.00 0.00 83 1003.1
20260505094255 71 185 10.0 25.0 0.00 0.00 0.00 82 1003.1
20260505093750 71 180 9.0 24.0 0.00 0.00 0.00 82 1003.2
20260505093248 71 187 7.0 17.0 0.00 0.00 0.00 82 1003.2
20260505092745 71 186 8.0 26.0 0.00 0.00 0.00 82 1003.2
20260505092244 71 190 9.0 22.0 0.00 0.00 0.00 82 1003.0
20260505091740 71 193 15.0 24.0 0.00 0.00 0.00 81 1003.1
20260505091239 71 194 11.0 20.0 0.00 0.00 0.00 81 1003.1
20260505090736 71 194 14.0 21.0 0.00 0.00 0.00 81 1003.0
20260505090234 71 186 12.0 18.0 0.00 0.00 0.00 81 1003.1
20260505085731 71 193 10.0 23.0 0.00 0.00 0.00 80 1003.2
20260505085229 72 175 8.0 21.0 0.00 0.00 0.00 80 1003.4
20260505084726 71 181 15.0 20.0 0.00 0.00 0.00 80 1003.3
20260505084226 71 189 10.0 18.0 0.00 0.00 0.00 80 1003.6
20260505083722 72 189 15.0 16.0 0.00 0.00 0.00 79 1003.5
20260505083219 72 171 7.0 22.0 0.00 0.00 0.00 79 1003.6
20260505082715 72 189 12.0 17.0 0.00 0.00 0.00 79 1003.7
20260505082212 72 176 9.0 14.0 0.00 0.00 0.00 79 1003.8
20260505081708 72 196 11.0 20.0 0.00 0.00 0.00 79 1003.7
20260505081205 72 169 14.0 17.0 0.00 0.00 0.00 79 1003.8
20260505080702 72 157 14.0 17.0 0.00 0.00 0.00 78 1003.8
20260505080158 72 189 11.0 17.0 0.00 0.00 0.00 78 1003.7
20260505075654 72 168 8.0 18.0 0.00 0.00 0.00 78 1003.8
20260505075151 73 180 8.0 20.0 0.00 0.00 0.00 77 1003.8
20260505074648 73 172 12.0 18.0 0.00 0.00 0.00 78 1003.7
20260505074145 73 179 9.0 18.0 0.00 0.00 0.00 77 1003.7
20260505073643 73 189 12.0 15.0 0.00 0.00 0.00 77 1003.9
20260505073141 73 185 12.0 17.0 0.00 0.00 0.00 77 1003.8
20260505072636 73 176 11.0 17.0 0.00 0.00 0.00 77 1004.1
20260505072133 73 189 10.0 18.0 0.00 0.00 0.00 76 1004.1
20260505071628 73 174 15.0 17.0 0.00 0.00 0.00 77 1004.4